Skip Page Navigation
NASA JPL Caltech
NASA Logo - Jet Propulsion Laboratory + View the NASA Portal
+ Near-Earth Object (NEO) Program
Search JPL
JPL Home Earth Solar System Stars & Galaxies Technology
JPL Solar System Dynamics
BODIES ORBITS EPHEMERIDES TOOLS PHYSICAL DATA DISCOVERY FAQ SITE MAP
JPL Small-Body Database Browser
Search: [ help ]  
23523 (1993 AQ)
Classification: Main-belt Asteroid          SPK-ID: 2023523
Ephemeris | Orbit Diagram | Orbital Elements | Physical Parameters | Discovery Circumstances ]

[ show orbit diagram ]
Orbital Elements at Epoch 2456400.5 (2013-Apr-18.0) TDB
Reference: MPO253523 (heliocentric ecliptic J2000)
 Element Value Uncertainty (1-sigma)   Units 
e 0.1016939 n/a  
a 2.5393324 n/a AU
q 2.2810978 n/a AU
i 8.73249 n/a deg
node 281.47204 n/a deg
peri 158.92570 n/a deg
M 35.83632 n/a deg
tp 2456253.3708707
(2012-Nov-21.87087070)
n/a JED
period 1478.0113177
4.05
n/a
n/a
d
yr
n 0.24357053 n/a deg/d
Q 2.7975670 n/a AU
  Orbit Determination Parameters
   # obs. used (total)      520  
   first obs. used      1993-??-??  
   last obs. used      2013-02-10  
   # oppositions      13  
   planetary ephem.      DE403  
   condition code      0  
   fit RMS      0.48  
   data source      MPC:mpn  
   producer      MPCLINUX  

Additional Information
 T_jup = 3.423 

Ephemeris | Orbit Diagram | Orbital Elements | Physical Parameters | Discovery Circumstances ]

Physical Parameter Table
Parameter Symbol Value Units Sigma Reference Notes
absolute magnitude H 14.1 mag n/a PDS3 (MPO 11112)  

23523 (1993 AQ)          Discovered 1993-Jan-13 by Ueda, S., Kaneda, H. at Kushiro (399)
Reference: 20010408/Numbers.arcLast Updated: 2004-04-19

Alternate Designations
 1993 AQ = 1999 RG127 
Ephemeris | Orbit Diagram | Orbital Elements | Physical Parameters | Discovery Circumstances ]
ABOUT SSD CREDITS/AWARDS PRIVACY/COPYRIGHT GLOSSARY LINKS
FirstGov 2013-Jun-18 21:58 UT
(server date/time)  
NASA Home Page
Site Manager:   Donald K. Yeomans
Webmaster  Alan B. Chamberlin